Stations météo

Publicité
Los Angeles/Int., Etats-Unis (72295): Température de l'air & dewpoint: 14.10.2018 12:00:00 - 20.10.2018 12:00:00 (PDT)Los Angeles/Int., Etats-Unis (72295): Vitesse du vent: 14.10.2018 12:00:00 - 20.10.2018 12:00:00 (PDT)Los Angeles/Int., Etats-Unis (72295): Direction du vent: 14.10.2018 12:00:00 - 20.10.2018 12:00:00 (PDT)Los Angeles/Int., Etats-Unis (72295): reduced air pressure: 14.10.2018 12:00:00 - 20.10.2018 12:00:00 (PDT)Los Angeles/Int., Etats-Unis (72295): visibility: 14.10.2018 12:00:00 - 20.10.2018 12:00:00 (PDT)Los Angeles/Int., Etats-Unis (72295): Quantités de précipitations: 14.10.2018 12:00:00 - 20.10.2018 12:00:00 (PDT)
Date & Time tt [°C] td [°C] ff [km/h] ff [knt] dd ppp [hPa] vv [km] rr [mm]
20.10.2018 12:00:00 30,0 -1,1 9 5 SSW 1013,6 16 -
20.10.2018 11:00:00 29,4 0,0 0 0 N 1014,2 16 0,0
20.10.2018 10:00:00 25,6 1,7 9 5 ESE 1014,6 16 -
20.10.2018 09:00:00 23,3 2,2 5 3 - 1014,6 16 -
20.10.2018 08:00:00 18,9 3,3 5 3 E 1014,0 16 -
20.10.2018 07:00:00 18,3 2,8 11 6 E 1013,8 16 -
20.10.2018 06:00:00 17,8 5,6 0 0 N 1013,7 16 -
20.10.2018 05:00:00 17,2 7,8 0 0 N 1013,6 16 0,0
20.10.2018 04:00:00 17,2 6,7 0 0 N 1013,3 16 -
20.10.2018 03:00:00 20,0 5,0 0 0 N 1013,5 16 -
20.10.2018 02:00:00 20,0 6,7 0 0 N 1013,8 16 -
20.10.2018 01:00:00 21,1 8,3 5 3 - 1013,7 16 -
20.10.2018 00:00:00 21,7 11,1 5 3 - 1013,9 16 -
19.10.2018 23:00:00 21,1 12,8 8 4 E 1014,4 16 0,0
19.10.2018 22:00:00 21,1 13,9 13 7 SE 1014,2 16 -
19.10.2018 21:00:00 21,7 13,9 5 3 E 1014,1 16 -
19.10.2018 20:00:00 21,7 13,9 9 5 WSW 1013,9 16 -
19.10.2018 19:00:00 23,3 11,1 15 8 WSW 1013,6 16 -
19.10.2018 18:00:00 26,1 3,9 26 14 W 1013,2 16 -
19.10.2018 17:00:00 28,3 0,0 24 13 W 1013,1 16 0,0
19.10.2018 16:00:00 29,4 0,6 22 12 W 1013,4 16 -
19.10.2018 15:00:00 30,0 1,1 18 10 W 1013,8 16 -
19.10.2018 14:00:00 30,0 1,7 21 11 W 1014,3 16 -
19.10.2018 13:00:00 31,7 -0,6 13 7 SSW 1015,1 16 -
19.10.2018 12:00:00 30,6 -1,7 13 7 W 1015,8 16 -
19.10.2018 11:00:00 28,3 0,0 8 4 SW 1016,5 16 -
19.10.2018 10:00:00 26,1 0,6 0 0 N 1016,7 16 -
19.10.2018 09:00:00 23,3 2,8 5 3 - 1016,8 16 -
19.10.2018 08:00:00 18,3 3,3 5 3 E 1016,3 16 -
19.10.2018 07:00:00 18,3 3,9 0 0 N 1015,9 16 -
19.10.2018 06:00:00 16,7 6,1 11 6 ESE 1015,6 16 -
19.10.2018 05:00:00 17,8 6,1 5 3 E 1015,4 16 0,0
19.10.2018 04:00:00 16,7 8,9 5 3 E 1015,1 16 -
19.10.2018 03:00:00 18,9 6,7 0 0 N 1015,4 16 -
19.10.2018 02:00:00 20,6 5,0 0 0 N 1015,8 16 -
19.10.2018 01:00:00 18,9 11,1 5 3 E 1015,9 16 -
19.10.2018 00:00:00 20,0 11,7 8 4 E 1015,8 16 -
18.10.2018 23:00:00 19,4 12,8 0 0 N 1016,0 16 0,0
18.10.2018 22:00:00 21,1 12,8 9 5 SSE 1016,0 16 -
18.10.2018 21:00:00 21,1 13,3 0 0 N 1015,9 16 -
18.10.2018 20:00:00 20,6 13,9 18 10 WSW 1015,7 16 -
18.10.2018 19:00:00 21,1 12,8 22 12 WSW 1015,4 16 -
18.10.2018 18:00:00 21,7 13,9 22 12 WSW 1015,0 16 -
18.10.2018 17:00:00 23,9 10,0 24 13 W 1014,9 16 0,0
18.10.2018 16:00:00 25,6 7,2 24 13 W 1015,1 16 -
18.10.2018 15:00:00 25,6 2,8 24 13 W 1015,2 16 -
18.10.2018 14:00:00 25,0 7,8 21 11 W 1015,7 16 -
18.10.2018 13:00:00 25,0 9,4 18 10 W 1016,7 16 -
18.10.2018 12:00:00 27,8 2,2 13 7 W 1017,5 16 -
18.10.2018 11:00:00 26,7 2,2 0 0 N 1018,1 16 0,0
18.10.2018 10:00:00 24,4 2,2 5 3 E 1018,3 16 -
18.10.2018 09:00:00 21,1 2,2 8 4 E 1018,4 16 -
18.10.2018 08:00:00 16,7 3,9 5 3 ENE 1018,0 16 -
18.10.2018 07:00:00 16,1 2,8 9 5 - 1017,5 16 -
18.10.2018 06:00:00 16,1 3,3 5 3 E 1017,2 16 -
18.10.2018 05:00:00 16,7 3,9 8 4 ENE 1016,9 16 0,0
18.10.2018 04:00:00 16,7 5,6 5 3 SE 1016,7 16 -
18.10.2018 03:00:00 15,6 9,4 9 5 E 1017,0 16 -
18.10.2018 02:00:00 17,2 11,1 8 4 ENE 1016,9 16 -
18.10.2018 01:00:00 17,2 13,3 9 5 E 1016,9 16 -
18.10.2018 00:00:00 17,8 13,9 9 5 ESE 1017,0 16 -
17.10.2018 23:00:00 18,9 14,4 5 3 SE 1017,2 16 0,0
17.10.2018 22:00:00 19,4 13,9 5 3 S 1016,8 16 -
17.10.2018 21:00:00 19,4 13,3 9 5 WSW 1016,6 16 -
17.10.2018 20:00:00 20,0 12,2 11 6 WSW 1016,3 16 -
17.10.2018 19:00:00 20,6 11,1 11 6 WSW 1016,0 16 -
17.10.2018 18:00:00 21,1 10,6 16 9 WSW 1015,5 16 -
17.10.2018 17:00:00 21,7 13,3 21 11 W 1015,5 16 0,0
17.10.2018 16:00:00 22,2 11,7 24 13 W 1015,7 16 -
17.10.2018 15:00:00 22,8 14,4 26 14 WSW 1016,0 16 -
17.10.2018 14:00:00 24,4 13,3 21 11 WSW 1016,4 16 -
17.10.2018 13:00:00 26,1 7,8 18 10 SW 1017,4 16 -
17.10.2018 12:00:00 26,7 -1,7 0 0 N 1017,9 16 -
17.10.2018 11:00:00 25,0 -1,1 8 4 ESE 1018,3 16 0,0
17.10.2018 10:00:00 22,2 -0,6 9 5 ESE 1018,6 16 -
17.10.2018 09:00:00 20,6 -0,6 11 6 NE 1018,5 16 -
17.10.2018 08:00:00 17,2 0,6 9 5 NE 1018,2 16 -
17.10.2018 07:00:00 17,8 0,0 8 4 NNE 1017,7 16 -
17.10.2018 06:00:00 15,6 5,6 0 0 N 1017,2 16 -
17.10.2018 05:00:00 15,0 6,7 8 4 ESE 1016,5 16 0,0
17.10.2018 04:00:00 16,1 7,2 8 4 E 1016,1 16 -
17.10.2018 03:00:00 16,1 7,8 5 3 - 1016,2 16 -
17.10.2018 02:00:00 16,7 9,4 8 4 E 1016,6 16 -
17.10.2018 01:00:00 17,2 9,4 8 4 E 1016,7 16 -
17.10.2018 00:00:00 18,3 9,4 8 4 ESE 1017,0 16 -
16.10.2018 23:00:00 19,4 10,6 8 4 NNE 1016,9 16 0,0
16.10.2018 22:00:00 - - - - - - - -
16.10.2018 21:00:00 21,1 10,6 11 6 ESE 1016,2 16 -
16.10.2018 20:00:00 21,1 11,1 15 8 WSW 1015,6 16 -
16.10.2018 19:00:00 21,7 11,1 16 9 SW 1014,9 16 -
16.10.2018 18:00:00 21,7 11,7 22 12 WSW 1015,0 16 -
16.10.2018 17:00:00 22,8 11,1 21 11 WSW 1015,0 16 0,0
16.10.2018 16:00:00 26,1 -8,3 31 17 WSW 1014,9 16 -
16.10.2018 15:00:00 27,2 -6,7 15 8 WSW 1014,8 16 -
16.10.2018 14:00:00 27,2 -8,9 15 8 SSW 1015,3 16 -
16.10.2018 13:00:00 26,1 -7,8 18 10 SSW 1016,2 16 -
16.10.2018 12:00:00 25,6 -7,2 18 10 WSW 1016,8 16 -
16.10.2018 11:00:00 25,0 -10,6 5 3 - 1017,2 16 0,0
16.10.2018 10:00:00 22,8 -6,7 0 0 N 1017,7 16 -
16.10.2018 09:00:00 20,0 -3,3 0 0 N 1017,5 16 -
16.10.2018 08:00:00 17,2 -2,8 9 5 NE 1017,0 16 -
16.10.2018 07:00:00 15,0 -1,7 0 0 N 1016,6 16 -
16.10.2018 06:00:00 13,9 0,6 0 0 N 1016,2 16 -
16.10.2018 05:00:00 14,4 1,7 5 3 ESE 1015,8 16 0,0
16.10.2018 04:00:00 16,7 -3,3 5 3 ENE 1015,8 16 -
16.10.2018 03:00:00 15,0 2,8 8 4 ESE 1016,1 16 -
16.10.2018 02:00:00 17,8 7,2 5 3 N 1016,2 16 -
16.10.2018 01:00:00 16,7 6,7 5 3 E 1016,2 16 -
16.10.2018 00:00:00 20,0 -2,8 0 0 N 1016,1 16 -
15.10.2018 23:00:00 20,0 3,9 16 9 W 1016,3 16 0,0
15.10.2018 22:00:00 21,7 2,8 9 5 SSW 1016,2 16 -
15.10.2018 21:00:00 22,2 0,0 9 5 SSE 1016,0 16 -
15.10.2018 20:00:00 22,8 -7,8 11 6 SSE 1015,9 16 -
15.10.2018 19:00:00 25,0 -17,8 0 0 N 1015,4 16 -
15.10.2018 18:00:00 27,2 -21,1 16 9 NNE 1015,3 16 -
15.10.2018 17:00:00 28,3 -21,1 22 12 NNE 1015,4 16 0,0
15.10.2018 16:00:00 28,3 -18,9 21 11 NNE 1015,7 16 -
15.10.2018 15:00:00 28,3 -17,2 21 11 N 1015,9 16 -
15.10.2018 14:00:00 27,8 -16,1 24 13 N 1016,3 16 -
15.10.2018 13:00:00 27,8 -15,6 18 10 N 1017,0 16 -
15.10.2018 12:00:00 26,7 -11,7 9 5 - 1017,5 16 -
15.10.2018 11:00:00 25,6 -9,4 13 7 E 1017,9 16 0,0
15.10.2018 10:00:00 23,9 -4,4 0 0 N 1018,2 16 -
15.10.2018 09:00:00 20,6 8,3 8 4 NE 1018,5 15 -
15.10.2018 08:00:00 16,1 13,9 0 0 N 1018,0 13 -
15.10.2018 07:00:00 15,6 13,9 0 0 N 1017,3 16 -
15.10.2018 06:00:00 16,1 14,4 5 3 NE 1016,8 16 -
15.10.2018 05:00:00 15,6 13,9 5 3 ENE 1016,2 16 0,0
15.10.2018 04:00:00 16,1 14,4 5 3 E 1015,8 16 -
15.10.2018 03:00:00 17,2 15,0 0 0 N 1016,0 16 -
15.10.2018 02:00:00 17,8 15,6 5 3 - 1015,8 16 -
15.10.2018 01:00:00 18,3 16,1 0 0 N 1015,6 16 -
15.10.2018 00:00:00 18,9 16,1 8 4 NNW 1015,5 16 -
14.10.2018 23:00:00 18,9 15,6 13 7 W 1015,1 16 0,0
14.10.2018 22:00:00 18,9 15,6 15 8 W 1014,8 16 -
14.10.2018 21:00:00 18,9 16,1 13 7 W 1014,3 16 -
14.10.2018 20:00:00 18,9 15,6 15 8 W 1013,9 16 -
14.10.2018 19:00:00 18,9 15,0 15 8 W 1013,4 16 -
14.10.2018 18:00:00 19,4 15,0 18 10 W 1013,1 16 -
14.10.2018 17:00:00 20,0 14,4 18 10 W 1013,2 16 0,0
14.10.2018 16:00:00 21,1 15,0 18 10 W 1013,5 16 -
14.10.2018 15:00:00 20,6 15,0 15 8 WSW 1013,6 16 -
14.10.2018 14:00:00 20,6 15,0 15 8 W 1013,7 16 -
14.10.2018 13:00:00 21,1 15,0 16 9 WSW 1014,2 16 -
14.10.2018 12:00:00 20,6 15,0 15 8 SW 1014,5 16 -

tt = Température de l'air
td = dewpoint
ff = Vitesse du vent
dd = Direction du vent
ppp = reduced air pressure
vv = visibility
rr = Quantités de précipitations

stations d'obs. à proximité